Time,TemperatureF,DewpointF,PressureIn,WindDirection,WindDirectionDegrees,WindSpeedMPH,WindSpeedGustMPH,Humidity,HourlyPrecipIn,Conditions,Clouds,dailyrainin,SoftwareType,DateUTC
2013-08-20 00:01:00,52.4,48.6,30.31,SE,128,0.0,0.0,87,0.00,,,0.00,WeatherCatV1.21B27,2013-08-19 23:01:00,
2013-08-20 00:06:00,52.3,48.5,30.31,SE,129,0.0,0.0,87,0.00,,,0.00,WeatherCatV1.21B27,2013-08-19 23:06:00,
2013-08-20 00:11:00,52.1,48.3,30.30,SE,129,0.0,0.0,87,0.00,,,0.00,WeatherCatV1.21B27,2013-08-19 23:11:00,
2013-08-20 00:16:00,52.0,48.2,30.31,SE,129,0.0,0.0,87,0.00,,,0.00,WeatherCatV1.21B27,2013-08-19 23:16:00,
2013-08-20 00:21:00,51.9,48.5,30.31,SE,128,0.0,0.0,88,0.00,,,0.00,WeatherCatV1.21B27,2013-08-19 23:21:00,
2013-08-20 00:25:00,52.0,48.6,30.31,SE,128,0.0,0.0,88,0.00,,,0.00,WeatherCatV1.21B27,2013-08-19 23:25:00,
2013-08-20 00:30:00,52.0,48.6,30.31,SE,128,0.0,0.0,88,0.00,,,0.00,WeatherCatV1.21B27,2013-08-19 23:30:00,
2013-08-20 00:35:00,52.0,48.6,30.31,SE,128,0.0,0.0,88,0.00,,,0.00,WeatherCatV1.21B27,2013-08-19 23:35:00,
2013-08-20 00:40:00,52.0,48.6,30.31,SE,128,0.0,0.0,88,0.00,,,0.00,WeatherCatV1.21B27,2013-08-19 23:40:00,
2013-08-20 00:45:00,52.0,48.6,30.31,SE,128,0.0,0.0,88,0.00,,,0.00,WeatherCatV1.21B27,2013-08-19 23:45:00,
2013-08-20 00:50:00,52.0,48.6,30.31,SE,128,0.0,0.0,88,0.00,,,0.00,WeatherCatV1.21B27,2013-08-19 23:50:00,
2013-08-20 00:55:00,52.0,48.6,30.31,SE,128,0.0,0.0,88,0.00,,,0.00,WeatherCatV1.21B27,2013-08-19 23:55:00,
2013-08-20 01:00:00,51.8,48.6,30.31,SE,128,0.0,0.0,89,0.00,,,0.00,WeatherCatV1.21B27,2013-08-20 00:00:00,
2013-08-20 01:05:00,51.8,48.6,30.31,SE,128,0.0,0.0,89,0.00,,,0.00,WeatherCatV1.21B27,2013-08-20 00:05:00,
2013-08-20 01:10:00,51.8,48.6,30.31,SE,128,0.0,0.0,89,0.00,,,0.00,WeatherCatV1.21B27,2013-08-20 00:10:00,
2013-08-20 01:15:00,51.8,48.6,30.31,SE,128,0.0,0.0,89,0.00,,,0.00,WeatherCatV1.21B27,2013-08-20 00:15:00,
2013-08-20 01:20:00,51.8,48.6,30.31,SE,128,0.0,0.0,89,0.00,,,0.00,WeatherCatV1.21B27,2013-08-20 00:20:00,
2013-08-20 01:25:00,51.8,48.6,30.31,SE,128,0.0,0.0,89,0.00,,,0.00,WeatherCatV1.21B27,2013-08-20 00:25:00,
2013-08-20 01:30:00,51.7,48.7,30.32,SE,128,0.0,0.0,89,0.00,,,0.00,WeatherCatV1.21B27,2013-08-20 00:30:00,
2013-08-20 01:35:00,51.7,48.7,30.32,SE,128,0.0,0.0,89,0.00,,,0.00,WeatherCatV1.21B27,2013-08-20 00:35:00,
2013-08-20 01:40:00,51.7,48.7,30.32,SE,128,0.0,0.0,89,0.00,,,0.00,WeatherCatV1.21B27,2013-08-20 00:40:00,
2013-08-20 01:45:00,51.7,48.7,30.32,SE,128,0.0,0.0,89,0.00,,,0.00,WeatherCatV1.21B27,2013-08-20 00:45:00,
2013-08-20 01:50:00,51.7,48.7,30.32,SE,128,0.0,0.0,89,0.00,,,0.00,WeatherCatV1.21B27,2013-08-20 00:50:00,
2013-08-20 01:55:00,51.7,48.7,30.32,SE,128,0.0,0.0,89,0.00,,,0.00,WeatherCatV1.21B27,2013-08-20 00:55:00,
2013-08-20 02:00:00,51.7,48.7,30.32,SE,128,0.0,0.0,89,0.00,,,0.00,WeatherCatV1.21B27,2013-08-20 01:00:00,
2013-08-20 02:05:00,51.6,48.7,30.32,SE,128,0.0,0.0,90,0.00,,,0.00,WeatherCatV1.21B27,2013-08-20 01:05:00,
2013-08-20 02:10:00,51.6,48.7,30.32,SE,128,0.0,0.0,90,0.00,,,0.00,WeatherCatV1.21B27,2013-08-20 01:10:00,
2013-08-20 02:15:00,51.6,48.7,30.32,SE,128,0.0,0.0,90,0.00,,,0.00,WeatherCatV1.21B27,2013-08-20 01:15:00,
2013-08-20 02:20:00,51.6,48.7,30.32,SE,128,0.0,0.0,90,0.00,,,0.00,WeatherCatV1.21B27,2013-08-20 01:20:00,
2013-08-20 02:25:00,51.6,48.7,30.32,SE,128,0.0,0.0,90,0.00,,,0.00,WeatherCatV1.21B27,2013-08-20 01:25:00,
2013-08-20 02:30:00,51.6,48.7,30.32,SE,128,0.0,0.0,90,0.00,,,0.00,WeatherCatV1.21B27,2013-08-20 01:30:00,
2013-08-20 02:35:00,51.5,48.8,30.32,SE,128,0.0,0.0,91,0.00,,,0.00,WeatherCatV1.21B27,2013-08-20 01:35:00,
2013-08-20 02:40:00,51.5,48.8,30.32,SE,128,0.0,0.0,91,0.00,,,0.00,WeatherCatV1.21B27,2013-08-20 01:40:00,
2013-08-20 02:45:00,51.5,48.8,30.32,SE,128,0.0,0.0,91,0.00,,,0.00,WeatherCatV1.21B27,2013-08-20 01:45:00,
2013-08-20 02:50:00,51.5,48.8,30.32,SE,128,0.0,0.0,91,0.00,,,0.00,WeatherCatV1.21B27,2013-08-20 01:50:00,
2013-08-20 02:55:00,51.5,48.8,30.32,SE,128,0.0,0.0,91,0.00,,,0.00,WeatherCatV1.21B27,2013-08-20 01:55:00,
2013-08-20 03:00:00,51.5,48.8,30.32,SE,128,0.0,0.0,91,0.00,,,0.00,WeatherCatV1.21B27,2013-08-20 02:00:00,
2013-08-20 03:05:00,51.3,48.9,30.32,SE,128,0.0,0.0,91,0.00,,,0.00,WeatherCatV1.21B27,2013-08-20 02:05:00,
2013-08-20 03:10:00,51.3,48.9,30.32,SE,128,0.0,0.0,91,0.00,,,0.00,WeatherCatV1.21B27,2013-08-20 02:10:00,
2013-08-20 03:15:00,51.3,48.9,30.32,SE,128,0.0,0.0,91,0.00,,,0.00,WeatherCatV1.21B27,2013-08-20 02:15:00,
2013-08-20 03:20:00,51.3,48.9,30.32,SE,128,0.0,0.0,91,0.00,,,0.00,WeatherCatV1.21B27,2013-08-20 02:20:00,
2013-08-20 03:25:00,51.3,48.9,30.32,SE,128,0.0,0.0,91,0.00,,,0.00,WeatherCatV1.21B27,2013-08-20 02:25:00,
2013-08-20 03:30:00,51.3,48.9,30.32,SE,128,0.0,0.0,91,0.00,,,0.00,WeatherCatV1.21B27,2013-08-20 02:30:00,
2013-08-20 03:35:00,51.2,48.9,30.33,SE,128,0.0,0.0,92,0.00,,,0.00,WeatherCatV1.21B27,2013-08-20 02:35:00,
2013-08-20 03:40:00,51.2,48.9,30.33,SE,128,0.0,0.0,92,0.00,,,0.00,WeatherCatV1.21B27,2013-08-20 02:40:00,
2013-08-20 03:45:00,51.2,48.9,30.33,SE,128,0.0,0.0,92,0.00,,,0.00,WeatherCatV1.21B27,2013-08-20 02:45:00,
2013-08-20 03:50:00,51.2,48.9,30.33,SE,128,0.0,0.0,92,0.00,,,0.00,WeatherCatV1.21B27,2013-08-20 02:50:00,
2013-08-20 03:55:00,51.2,48.9,30.33,SE,128,0.0,0.0,92,0.00,,,0.00,WeatherCatV1.21B27,2013-08-20 02:55:00,
2013-08-20 04:00:00,51.2,48.9,30.33,SE,128,0.0,0.0,92,0.00,,,0.00,WeatherCatV1.21B27,2013-08-20 03:00:00,
2013-08-20 04:05:00,51.1,49.0,30.33,SE,128,0.0,0.0,93,0.00,,,0.00,WeatherCatV1.21B27,2013-08-20 03:05:00,
2013-08-20 04:10:00,51.1,49.0,30.33,SE,128,0.0,0.0,93,0.00,,,0.00,WeatherCatV1.21B27,2013-08-20 03:10:00,
2013-08-20 04:15:00,51.1,49.0,30.33,SE,128,0.0,0.0,93,0.00,,,0.00,WeatherCatV1.21B27,2013-08-20 03:15:00,
2013-08-20 04:20:00,51.1,49.0,30.33,SE,128,0.0,0.0,93,0.00,,,0.00,WeatherCatV1.21B27,2013-08-20 03:20:00,
2013-08-20 04:25:00,51.1,49.0,30.33,SE,128,0.0,0.0,93,0.00,,,0.00,WeatherCatV1.21B27,2013-08-20 03:25:00,
2013-08-20 04:30:00,51.0,49.0,30.33,SE,128,0.0,0.0,93,0.00,,,0.00,WeatherCatV1.21B27,2013-08-20 03:30:00,
2013-08-20 04:35:00,51.0,49.0,30.33,SE,128,0.0,0.0,93,0.00,,,0.00,WeatherCatV1.21B27,2013-08-20 03:35:00,
2013-08-20 04:40:00,51.0,49.0,30.33,SE,128,0.0,0.0,93,0.00,,,0.00,WeatherCatV1.21B27,2013-08-20 03:40:00,
2013-08-20 04:45:00,51.0,49.0,30.33,SE,128,0.0,0.0,93,0.00,,,0.00,WeatherCatV1.21B27,2013-08-20 03:45:00,
2013-08-20 04:50:00,51.0,49.0,30.33,SE,128,0.0,0.0,93,0.00,,,0.00,WeatherCatV1.21B27,2013-08-20 03:50:00,
2013-08-20 04:55:00,51.0,49.0,30.33,SE,128,0.0,0.0,93,0.00,,,0.00,WeatherCatV1.21B27,2013-08-20 03:55:00,
2013-08-20 05:00:00,50.8,49.1,30.33,SE,128,0.0,0.0,94,0.00,,,0.00,WeatherCatV1.21B27,2013-08-20 04:00:00,
2013-08-20 05:05:00,50.8,49.1,30.33,SE,128,0.0,0.0,94,0.00,,,0.00,WeatherCatV1.21B27,2013-08-20 04:05:00,
2013-08-20 05:10:00,50.8,49.1,30.33,SE,128,0.0,0.0,94,0.00,,,0.00,WeatherCatV1.21B27,2013-08-20 04:10:00,
2013-08-20 05:15:00,50.8,49.1,30.33,SE,128,0.0,0.0,94,0.00,,,0.00,WeatherCatV1.21B27,2013-08-20 04:15:00,
2013-08-20 05:20:00,50.8,49.1,30.33,SE,128,0.0,0.0,94,0.00,,,0.00,WeatherCatV1.21B27,2013-08-20 04:20:00,
2013-08-20 05:25:00,50.8,49.1,30.33,SE,128,0.0,0.0,94,0.00,,,0.00,WeatherCatV1.21B27,2013-08-20 04:25:00,
2013-08-20 05:30:00,50.8,49.1,30.33,SE,128,0.0,0.0,94,0.00,,,0.00,WeatherCatV1.21B27,2013-08-20 04:30:00,
2013-08-20 05:35:00,50.7,49.2,30.34,SE,128,0.0,0.0,94,0.00,,,0.00,WeatherCatV1.21B27,2013-08-20 04:35:00,
2013-08-20 05:40:00,50.7,49.2,30.34,SE,128,0.0,0.0,94,0.00,,,0.00,WeatherCatV1.21B27,2013-08-20 04:40:00,
2013-08-20 05:45:00,50.7,49.2,30.34,SE,128,0.0,0.0,94,0.00,,,0.00,WeatherCatV1.21B27,2013-08-20 04:45:00,
2013-08-20 05:50:00,50.7,49.2,30.34,SE,128,0.0,0.0,94,0.00,,,0.00,WeatherCatV1.21B27,2013-08-20 04:50:00,
2013-08-20 05:55:00,50.7,49.2,30.34,SE,128,0.0,0.0,94,0.00,,,0.00,WeatherCatV1.21B27,2013-08-20 04:55:00,
2013-08-20 06:05:00,50.7,49.2,30.34,SE,128,0.0,0.0,94,0.00,,,0.00,WeatherCatV1.21B27,2013-08-20 05:05:00,
2013-08-20 06:10:00,50.7,49.3,30.34,SE,128,0.0,0.0,95,0.00,,,0.00,WeatherCatV1.21B27,2013-08-20 05:10:00,
2013-08-20 06:15:00,50.8,49.4,30.34,SE,129,0.0,0.0,95,0.00,,,0.00,WeatherCatV1.21B27,2013-08-20 05:15:00,
2013-08-20 06:20:00,50.9,49.5,30.34,SE,128,0.0,0.0,95,0.00,,,0.00,WeatherCatV1.21B27,2013-08-20 05:20:00,
2013-08-20 06:25:00,51.0,49.6,30.34,SE,129,0.0,0.0,95,0.00,,,0.00,WeatherCatV1.21B27,2013-08-20 05:25:00,
2013-08-20 06:30:00,51.1,49.4,30.35,SE,129,0.0,0.0,94,0.00,,,0.00,WeatherCatV1.21B27,2013-08-20 05:30:00,
2013-08-20 06:35:00,51.1,49.4,30.35,SE,129,0.0,0.0,94,0.00,,,0.00,WeatherCatV1.21B27,2013-08-20 05:35:00,
2013-08-20 06:40:00,51.2,49.8,30.35,SE,128,0.0,0.0,95,0.00,,,0.00,WeatherCatV1.21B27,2013-08-20 05:40:00,
2013-08-20 06:45:00,51.2,49.5,30.35,SE,129,0.0,0.0,94,0.00,,,0.00,WeatherCatV1.21B27,2013-08-20 05:45:00,
2013-08-20 06:50:00,51.3,49.9,30.35,SE,129,0.0,0.0,95,0.00,,,0.00,WeatherCatV1.21B27,2013-08-20 05:50:00,
2013-08-20 06:55:00,51.4,50.0,30.35,SE,128,0.0,0.0,95,0.00,,,0.00,WeatherCatV1.21B27,2013-08-20 05:55:00,
2013-08-20 07:00:00,51.6,50.2,30.35,SE,128,0.0,0.0,95,0.00,,,0.00,WeatherCatV1.21B27,2013-08-20 06:00:00,
2013-08-20 07:05:00,51.7,50.3,30.35,SE,128,0.0,0.0,95,0.00,,,0.00,WeatherCatV1.21B27,2013-08-20 06:05:00,
2013-08-20 07:10:00,51.9,50.5,30.35,SE,129,0.0,0.0,95,0.00,,,0.00,WeatherCatV1.21B27,2013-08-20 06:10:00,
2013-08-20 07:15:00,52.1,50.7,30.35,SE,128,0.0,0.0,95,0.00,,,0.00,WeatherCatV1.21B27,2013-08-20 06:15:00,
2013-08-20 07:20:00,52.3,50.9,30.35,SE,129,0.0,0.0,95,0.00,,,0.00,WeatherCatV1.21B27,2013-08-20 06:20:00,
2013-08-20 07:25:00,52.6,51.2,30.35,SE,129,0.0,0.0,95,0.00,,,0.00,WeatherCatV1.21B27,2013-08-20 06:25:00,
2013-08-20 07:30:00,52.9,51.5,30.35,SE,128,0.0,0.0,95,0.00,,,0.00,WeatherCatV1.21B27,2013-08-20 06:30:00,
2013-08-20 07:35:00,53.2,51.8,30.35,SE,129,0.0,0.0,95,0.00,,,0.00,WeatherCatV1.21B27,2013-08-20 06:35:00,
2013-08-20 07:40:00,53.7,52.0,30.35,SE,129,0.0,0.0,94,0.00,,,0.00,WeatherCatV1.21B27,2013-08-20 06:40:00,
2013-08-20 07:45:00,54.1,52.4,30.35,SE,128,0.0,0.0,94,0.00,,,0.00,WeatherCatV1.21B27,2013-08-20 06:45:00,
2013-08-20 07:50:00,54.6,52.9,30.35,SE,129,0.0,0.0,94,0.00,,,0.00,WeatherCatV1.21B27,2013-08-20 06:50:00,
2013-08-20 07:55:00,55.1,53.1,30.35,SE,129,0.0,0.0,93,0.00,,,0.00,WeatherCatV1.21B27,2013-08-20 06:55:00,
2013-08-20 08:00:00,55.8,53.5,30.36,SE,128,0.0,0.0,92,0.00,,,0.00,WeatherCatV1.21B27,2013-08-20 07:00:00,
2013-08-20 08:05:00,56.3,53.7,30.36,SE,128,0.0,0.0,91,0.00,,,0.00,WeatherCatV1.21B27,2013-08-20 07:05:00,
2013-08-20 08:10:00,56.8,53.9,30.36,SE,129,0.0,0.0,90,0.00,,,0.00,WeatherCatV1.21B27,2013-08-20 07:10:00,
2013-08-20 08:15:00,57.4,54.2,30.36,SE,129,0.0,0.0,89,0.00,,,0.00,WeatherCatV1.21B27,2013-08-20 07:15:00,
2013-08-20 08:20:00,57.8,54.6,30.36,SE,129,0.0,0.0,89,0.00,,,0.00,WeatherCatV1.21B27,2013-08-20 07:20:00,
2013-08-20 08:25:00,58.2,54.7,30.36,SE,128,0.0,0.0,88,0.00,,,0.00,WeatherCatV1.21B27,2013-08-20 07:25:00,
2013-08-20 08:30:00,58.5,54.6,30.36,SE,129,0.0,0.0,87,0.00,,,0.00,WeatherCatV1.21B27,2013-08-20 07:30:00,
2013-08-20 08:35:00,58.7,54.8,30.36,SE,128,0.0,0.0,87,0.00,,,0.00,WeatherCatV1.21B27,2013-08-20 07:35:00,
2013-08-20 08:40:00,58.9,55.0,30.36,SE,129,0.0,0.0,87,0.00,,,0.00,WeatherCatV1.21B27,2013-08-20 07:40:00,
2013-08-20 08:45:00,59.4,55.2,30.36,SE,129,0.0,0.0,86,0.00,,,0.00,WeatherCatV1.21B27,2013-08-20 07:45:00,
2013-08-20 08:50:00,59.9,55.4,30.36,SE,128,0.0,0.0,85,0.00,,,0.00,WeatherCatV1.21B27,2013-08-20 07:50:00,
2013-08-20 08:55:00,60.1,55.2,30.36,SE,128,0.0,0.0,84,0.00,,,0.00,WeatherCatV1.21B27,2013-08-20 07:55:00,
2013-08-20 09:00:00,60.4,55.5,30.36,SE,129,0.0,0.0,84,0.00,,,0.00,WeatherCatV1.21B27,2013-08-20 08:00:00,
2013-08-20 09:05:00,60.6,55.7,30.36,SE,129,0.0,0.0,84,0.00,,,0.00,WeatherCatV1.21B27,2013-08-20 08:05:00,
2013-08-20 09:10:00,60.6,55.4,30.36,SE,128,0.0,0.0,83,0.00,,,0.00,WeatherCatV1.21B27,2013-08-20 08:10:00,
2013-08-20 09:15:00,60.7,55.5,30.36,SE,128,0.0,0.0,83,0.00,,,0.00,WeatherCatV1.21B27,2013-08-20 08:15:00,
2013-08-20 09:20:00,60.9,55.0,30.36,SE,129,0.0,0.0,81,0.00,,,0.00,WeatherCatV1.21B27,2013-08-20 08:20:00,
2013-08-20 09:25:00,61.0,54.4,30.36,SE,129,0.0,0.0,79,0.00,,,0.00,WeatherCatV1.21B27,2013-08-20 08:25:00,
2013-08-20 09:30:00,61.0,54.4,30.36,SE,129,0.0,1.0,79,0.00,,,0.00,WeatherCatV1.21B27,2013-08-20 08:30:00,
2013-08-20 09:35:00,61.3,54.4,30.36,NNW,346,0.0,0.0,78,0.00,,,0.00,WeatherCatV1.21B27,2013-08-20 08:35:00,
2013-08-20 09:40:00,61.6,55.0,30.36,East,81,0.0,0.0,79,0.00,,,0.00,WeatherCatV1.21B27,2013-08-20 08:40:00,
2013-08-20 09:45:00,61.9,55.3,30.35,East,81,0.0,0.0,79,0.00,,,0.00,WeatherCatV1.21B27,2013-08-20 08:45:00,
2013-08-20 09:50:00,62.2,54.9,30.36,East,81,0.0,0.0,77,0.00,,,0.00,WeatherCatV1.21B27,2013-08-20 08:50:00,
2013-08-20 09:55:00,62.4,53.6,30.35,East,81,0.0,0.0,73,0.00,,,0.00,WeatherCatV1.21B27,2013-08-20 08:55:00,
2013-08-20 10:00:00,62.6,53.8,30.36,NE,49,0.0,0.0,73,0.00,,,0.00,WeatherCatV1.21B27,2013-08-20 09:00:00,
2013-08-20 10:05:00,62.9,54.5,30.35,NE,49,0.0,1.0,74,0.00,,,0.00,WeatherCatV1.21B27,2013-08-20 09:05:00,
2013-08-20 10:10:00,63.1,53.2,30.35,NE,49,0.0,0.0,70,0.00,,,0.00,WeatherCatV1.21B27,2013-08-20 09:10:00,
2013-08-20 10:15:00,63.4,53.0,30.35,NE,49,0.0,0.0,69,0.00,,,0.00,WeatherCatV1.21B27,2013-08-20 09:15:00,
2013-08-20 10:20:00,63.9,53.1,30.35,NE,49,0.0,0.0,68,0.00,,,0.00,WeatherCatV1.21B27,2013-08-20 09:20:00,
2013-08-20 10:25:00,64.3,53.5,30.35,NE,49,0.0,0.0,68,0.00,,,0.00,WeatherCatV1.21B27,2013-08-20 09:25:00,
2013-08-20 10:30:00,64.5,53.7,30.35,NE,49,0.0,0.0,68,0.00,,,0.00,WeatherCatV1.21B27,2013-08-20 09:30:00,
2013-08-20 10:35:00,64.9,52.8,30.35,NE,49,0.0,1.0,65,0.00,,,0.00,WeatherCatV1.21B27,2013-08-20 09:35:00,
2013-08-20 10:40:00,65.2,52.7,30.35,NNE,32,0.0,0.0,64,0.00,,,0.00,WeatherCatV1.21B27,2013-08-20 09:40:00,
2013-08-20 10:45:00,65.5,52.6,30.35,NNE,18,0.0,1.0,63,0.00,,,0.00,WeatherCatV1.21B27,2013-08-20 09:45:00,
2013-08-20 10:50:00,65.8,52.8,30.35,NE,44,0.0,1.0,63,0.00,,,0.00,WeatherCatV1.21B27,2013-08-20 09:50:00,
2013-08-20 10:55:00,66.1,52.7,30.35,North,11,1.0,1.0,62,0.00,,,0.00,WeatherCatV1.21B27,2013-08-20 09:55:00,
2013-08-20 11:00:00,66.5,53.1,30.35,North,11,0.0,1.0,62,0.00,,,0.00,WeatherCatV1.21B27,2013-08-20 10:00:00,
2013-08-20 11:05:00,66.8,53.3,30.35,North,11,0.0,1.0,62,0.00,,,0.00,WeatherCatV1.21B27,2013-08-20 10:05:00,
2013-08-20 11:10:00,67.3,52.5,30.35,NE,43,0.0,1.0,59,0.00,,,0.00,WeatherCatV1.21B27,2013-08-20 10:10:00,
2013-08-20 11:15:00,67.6,53.2,30.35,NE,41,0.0,1.0,60,0.00,,,0.00,WeatherCatV1.21B27,2013-08-20 10:15:00,
2013-08-20 11:20:00,68.0,52.7,30.35,NE,41,0.0,1.0,58,0.00,,,0.00,WeatherCatV1.21B27,2013-08-20 10:20:00,
2013-08-20 11:25:00,68.6,53.2,30.35,East,94,0.0,2.0,58,0.00,,,0.00,WeatherCatV1.21B27,2013-08-20 10:25:00,
2013-08-20 11:30:00,69.1,53.2,30.35,NE,51,0.0,1.0,57,0.00,,,0.00,WeatherCatV1.21B27,2013-08-20 10:30:00,
2013-08-20 11:35:00,69.8,52.4,30.35,NW,307,1.0,1.0,54,0.00,,,0.00,WeatherCatV1.21B27,2013-08-20 10:35:00,
2013-08-20 11:40:00,70.5,52.5,30.35,WSW,258,0.0,1.0,53,0.00,,,0.00,WeatherCatV1.21B27,2013-08-20 10:40:00,
2013-08-20 11:45:00,71.7,53.1,30.35,NNE,12,0.0,1.0,52,0.00,,,0.00,WeatherCatV1.21B27,2013-08-20 10:45:00,
2013-08-20 11:50:00,72.8,53.6,30.35,NNE,23,0.0,0.0,51,0.00,,,0.00,WeatherCatV1.21B27,2013-08-20 10:50:00,
2013-08-20 11:55:00,74.3,53.9,30.35,NNE,23,0.0,1.0,49,0.00,,,0.00,WeatherCatV1.21B27,2013-08-20 10:55:00,
2013-08-20 12:00:00,75.6,52.7,30.35,ENE,77,0.0,1.0,45,0.00,,,0.00,WeatherCatV1.21B27,2013-08-20 11:00:00,
2013-08-20 12:05:00,75.8,53.5,30.35,East,98,0.0,1.0,46,0.00,,,0.00,WeatherCatV1.21B27,2013-08-20 11:05:00,
2013-08-20 12:10:00,77.1,55.3,30.35,East,98,0.0,0.0,47,0.00,,,0.00,WeatherCatV1.21B27,2013-08-20 11:10:00,
2013-08-20 12:15:00,77.7,52.8,30.35,East,98,0.0,1.0,42,0.00,,,0.00,WeatherCatV1.21B27,2013-08-20 11:15:00,
2013-08-20 12:20:00,77.8,52.8,30.35,SW,226,0.0,1.0,42,0.00,,,0.00,WeatherCatV1.21B27,2013-08-20 11:20:00,
2013-08-20 12:25:00,77.6,53.3,30.35,West,266,0.0,1.0,43,0.00,,,0.00,WeatherCatV1.21B27,2013-08-20 11:25:00,
2013-08-20 12:30:00,77.7,51.4,30.35,NE,41,0.0,2.0,40,0.00,,,0.00,WeatherCatV1.21B27,2013-08-20 11:30:00,
2013-08-20 12:35:00,77.5,51.9,30.35,East,89,0.0,1.0,41,0.00,,,0.00,WeatherCatV1.21B27,2013-08-20 11:35:00,
2013-08-20 12:40:00,78.1,53.1,30.35,WNW,289,0.0,1.0,42,0.00,,,0.00,WeatherCatV1.21B27,2013-08-20 11:40:00,
2013-08-20 12:45:00,78.0,51.7,30.35,NE,53,0.0,1.0,40,0.00,,,0.00,WeatherCatV1.21B27,2013-08-20 11:45:00,
2013-08-20 12:50:00,77.9,52.3,30.35,NE,53,0.0,1.0,41,0.00,,,0.00,WeatherCatV1.21B27,2013-08-20 11:50:00,
2013-08-20 12:55:00,78.3,52.6,30.35,NE,53,0.0,0.0,41,0.00,,,0.00,WeatherCatV1.21B27,2013-08-20 11:55:00,
2013-08-20 13:00:00,78.8,53.1,30.35,NE,53,0.0,1.0,41,0.00,,,0.00,WeatherCatV1.21B27,2013-08-20 12:00:00,
2013-08-20 13:05:00,79.2,53.4,30.35,NE,53,0.0,1.0,41,0.00,,,0.00,WeatherCatV1.21B27,2013-08-20 12:05:00,
2013-08-20 13:10:00,80.1,52.2,30.35,NE,53,0.0,1.0,38,0.00,,,0.00,WeatherCatV1.21B27,2013-08-20 12:10:00,
2013-08-20 13:15:00,81.1,53.8,30.35,NE,53,0.0,1.0,39,0.00,,,0.00,WeatherCatV1.21B27,2013-08-20 12:15:00,
2013-08-20 13:20:00,80.5,51.8,30.35,North,349,0.0,1.0,37,0.00,,,0.00,WeatherCatV1.21B27,2013-08-20 12:20:00,
2013-08-20 13:25:00,79.9,52.0,30.35,NNW,347,0.0,0.0,38,0.00,,,0.00,WeatherCatV1.21B27,2013-08-20 12:25:00,
2013-08-20 13:30:00,79.3,52.2,30.35,North,354,0.0,0.0,39,0.00,,,0.00,WeatherCatV1.21B27,2013-08-20 12:30:00,
2013-08-20 13:35:00,79.6,51.0,30.35,WSW,242,1.0,1.0,37,0.00,,,0.00,WeatherCatV1.21B27,2013-08-20 12:35:00,
2013-08-20 13:40:00,79.4,53.0,30.35,WSW,242,0.0,0.0,40,0.00,,,0.00,WeatherCatV1.21B27,2013-08-20 12:40:00,
2013-08-20 13:45:00,80.0,53.5,30.34,North,355,0.0,1.0,40,0.00,,,0.00,WeatherCatV1.21B27,2013-08-20 12:45:00,
2013-08-20 13:50:00,80.4,52.4,30.34,NNW,343,0.0,0.0,38,0.00,,,0.00,WeatherCatV1.21B27,2013-08-20 12:50:00,
2013-08-20 13:55:00,80.9,54.3,30.34,NNW,343,0.0,0.0,40,0.00,,,0.00,WeatherCatV1.21B27,2013-08-20 12:55:00,
2013-08-20 14:01:00,79.1,51.3,30.34,SE,140,1.0,2.0,38,0.00,,,0.00,WeatherCatV1.21B27,2013-08-20 13:01:00,
2013-08-20 14:06:00,77.3,51.1,30.34,ESE,107,1.0,1.0,40,0.00,,,0.00,WeatherCatV1.21B27,2013-08-20 13:06:00,
2013-08-20 14:11:00,76.3,51.5,30.34,ESE,108,0.0,1.0,42,0.00,,,0.00,WeatherCatV1.21B27,2013-08-20 13:11:00,
2013-08-20 14:16:00,75.8,51.7,30.34,ESE,103,0.0,0.0,43,0.00,,,0.00,WeatherCatV1.21B27,2013-08-20 13:16:00,
2013-08-20 14:21:00,75.7,52.2,30.34,ESE,103,0.0,0.0,44,0.00,,,0.00,WeatherCatV1.21B27,2013-08-20 13:21:00,
2013-08-20 14:26:00,76.0,50.6,30.33,ESE,117,0.0,2.0,41,0.00,,,0.00,WeatherCatV1.21B27,2013-08-20 13:26:00,
2013-08-20 14:31:00,76.2,52.0,30.33,ESE,117,0.0,0.0,43,0.00,,,0.00,WeatherCatV1.21B27,2013-08-20 13:31:00,
2013-08-20 14:36:00,76.2,50.8,30.33,SE,130,1.0,2.0,41,0.00,,,0.00,WeatherCatV1.21B27,2013-08-20 13:36:00,
2013-08-20 14:41:00,76.6,52.4,30.33,North,9,0.0,1.0,43,0.00,,,0.00,WeatherCatV1.21B27,2013-08-20 13:41:00,
2013-08-20 14:46:00,76.6,51.8,30.33,West,268,0.0,1.0,42,0.00,,,0.00,WeatherCatV1.21B27,2013-08-20 13:46:00,
2013-08-20 14:51:00,77.0,52.1,30.33,North,8,0.0,1.0,42,0.00,,,0.00,WeatherCatV1.21B27,2013-08-20 13:51:00,
2013-08-20 14:56:00,77.6,52.7,30.33,NNE,20,0.0,1.0,42,0.00,,,0.00,WeatherCatV1.21B27,2013-08-20 13:56:00,
2013-08-20 15:01:00,77.5,51.9,30.33,South,173,1.0,1.0,41,0.00,,,0.00,WeatherCatV1.21B27,2013-08-20 14:01:00,
2013-08-20 15:06:00,76.9,51.4,30.33,ENE,57,0.0,0.0,41,0.00,,,0.00,WeatherCatV1.21B27,2013-08-20 14:06:00,
2013-08-20 15:11:00,76.4,51.6,30.33,East,91,1.0,1.0,42,0.00,,,0.00,WeatherCatV1.21B27,2013-08-20 14:11:00,
2013-08-20 15:16:00,75.9,51.1,30.33,NNW,345,0.0,1.0,42,0.00,,,0.00,WeatherCatV1.21B27,2013-08-20 14:16:00,
2013-08-20 15:21:00,75.5,52.0,30.33,WSW,246,0.0,1.0,44,0.00,,,0.00,WeatherCatV1.21B27,2013-08-20 14:21:00,
2013-08-20 15:26:00,75.1,52.3,30.32,SW,236,0.0,0.0,45,0.00,,,0.00,WeatherCatV1.21B27,2013-08-20 14:26:00,
2013-08-20 15:31:00,74.6,51.8,30.32,ESE,113,0.0,1.0,45,0.00,,,0.00,WeatherCatV1.21B27,2013-08-20 14:31:00,
2013-08-20 15:36:00,74.2,52.1,30.32,ESE,113,0.0,0.0,46,0.00,,,0.00,WeatherCatV1.21B27,2013-08-20 14:36:00,
2013-08-20 15:41:00,73.9,52.4,30.32,ESE,113,0.0,1.0,47,0.00,,,0.00,WeatherCatV1.21B27,2013-08-20 14:41:00,
2013-08-20 15:46:00,73.5,51.4,30.32,ESE,113,0.0,1.0,46,0.00,,,0.00,WeatherCatV1.21B27,2013-08-20 14:46:00,
2013-08-20 15:51:00,73.1,51.7,30.32,ESE,113,0.0,0.0,47,0.00,,,0.00,WeatherCatV1.21B27,2013-08-20 14:51:00,
2013-08-20 15:56:00,73.1,51.7,30.32,ESE,113,0.0,1.0,47,0.00,,,0.00,WeatherCatV1.21B27,2013-08-20 14:56:00,
2013-08-20 16:01:00,73.3,51.8,30.32,North,350,0.0,0.0,47,0.00,,,0.00,WeatherCatV1.21B27,2013-08-20 15:01:00,
2013-08-20 16:06:00,73.6,51.5,30.32,NNW,329,0.0,1.0,46,0.00,,,0.00,WeatherCatV1.21B27,2013-08-20 15:06:00,
2013-08-20 16:10:00,73.7,51.6,30.31,NE,40,0.0,1.0,46,0.00,,,0.00,WeatherCatV1.21B27,2013-08-20 15:10:00,
2013-08-20 16:15:00,74.0,50.7,30.31,SE,124,1.0,3.0,44,0.00,,,0.00,WeatherCatV1.21B27,2013-08-20 15:15:00,
2013-08-20 16:20:00,74.1,51.4,30.31,NE,49,0.0,1.0,45,0.00,,,0.00,WeatherCatV1.21B27,2013-08-20 15:20:00,
2013-08-20 16:25:00,74.4,51.7,30.31,East,94,0.0,2.0,45,0.00,,,0.00,WeatherCatV1.21B27,2013-08-20 15:25:00,
2013-08-20 16:31:00,74.5,51.8,30.31,East,94,0.0,1.0,45,0.00,,,0.00,WeatherCatV1.21B27,2013-08-20 15:31:00,
2013-08-20 16:36:00,74.6,51.8,30.31,West,281,1.0,1.0,45,0.00,,,0.00,WeatherCatV1.21B27,2013-08-20 15:36:00,
2013-08-20 16:41:00,74.4,52.2,30.30,West,281,0.0,1.0,46,0.00,,,0.00,WeatherCatV1.21B27,2013-08-20 15:41:00,
2013-08-20 16:45:00,74.2,51.5,30.30,NNW,342,0.0,0.0,45,0.00,,,0.00,WeatherCatV1.21B27,2013-08-20 15:45:00,
2013-08-20 16:50:00,74.0,51.3,30.30,NNW,348,0.0,0.0,45,0.00,,,0.00,WeatherCatV1.21B27,2013-08-20 15:50:00,
2013-08-20 16:56:00,73.6,51.5,30.30,North,349,0.0,1.0,46,0.00,,,0.00,WeatherCatV1.21B27,2013-08-20 15:56:00,
2013-08-20 17:00:00,73.3,51.8,30.30,NNW,348,0.0,0.0,47,0.00,,,0.00,WeatherCatV1.21B27,2013-08-20 16:00:00,
2013-08-20 17:05:00,73.0,53.2,30.30,NNW,348,0.0,0.0,50,0.00,,,0.00,WeatherCatV1.21B27,2013-08-20 16:05:00,
2013-08-20 17:10:00,72.7,51.9,30.30,North,350,0.0,0.0,48,0.00,,,0.00,WeatherCatV1.21B27,2013-08-20 16:10:00,
2013-08-20 17:16:00,72.3,52.0,30.30,North,350,0.0,0.0,49,0.00,,,0.00,WeatherCatV1.21B27,2013-08-20 16:16:00,
2013-08-20 17:21:00,71.9,50.6,30.30,North,350,0.0,0.0,47,0.00,,,0.00,WeatherCatV1.21B27,2013-08-20 16:21:00,
2013-08-20 17:26:00,71.8,51.6,30.30,North,350,0.0,0.0,49,0.00,,,0.00,WeatherCatV1.21B27,2013-08-20 16:26:00,
2013-08-20 17:31:00,71.7,51.5,30.30,NW,322,0.0,0.0,49,0.00,,,0.00,WeatherCatV1.21B27,2013-08-20 16:31:00,
2013-08-20 17:36:00,71.6,52.0,30.30,NW,322,0.0,0.0,50,0.00,,,0.00,WeatherCatV1.21B27,2013-08-20 16:36:00,
2013-08-20 17:41:00,71.7,51.5,30.30,NW,322,0.0,0.0,49,0.00,,,0.00,WeatherCatV1.21B27,2013-08-20 16:41:00,
2013-08-20 17:46:00,71.7,52.0,30.29,NW,322,0.0,0.0,50,0.00,,,0.00,WeatherCatV1.21B27,2013-08-20 16:46:00,
2013-08-20 17:51:00,71.6,52.0,30.29,NW,322,0.0,0.0,50,0.00,,,0.00,WeatherCatV1.21B27,2013-08-20 16:51:00,
2013-08-20 17:56:00,71.5,52.4,30.29,NW,307,0.0,0.0,51,0.00,,,0.00,WeatherCatV1.21B27,2013-08-20 16:56:00,
2013-08-20 18:01:00,71.3,52.2,30.29,NW,308,0.0,0.0,51,0.00,,,0.00,WeatherCatV1.21B27,2013-08-20 17:01:00,
2013-08-20 18:06:00,71.1,52.6,30.29,NW,307,0.0,0.0,52,0.00,,,0.00,WeatherCatV1.21B27,2013-08-20 17:06:00,
2013-08-20 18:11:00,70.9,51.9,30.29,NW,308,0.0,0.0,51,0.00,,,0.00,WeatherCatV1.21B27,2013-08-20 17:11:00,
2013-08-20 18:16:00,70.6,51.6,30.29,NW,307,0.0,0.0,51,0.00,,,0.00,WeatherCatV1.21B27,2013-08-20 17:16:00,
2013-08-20 18:21:00,70.5,51.5,30.29,NW,308,0.0,0.0,51,0.00,,,0.00,WeatherCatV1.21B27,2013-08-20 17:21:00,
2013-08-20 18:26:00,70.4,51.9,30.29,NW,308,0.0,0.0,52,0.00,,,0.00,WeatherCatV1.21B27,2013-08-20 17:26:00,
2013-08-20 18:31:00,70.3,52.3,30.29,NW,307,0.0,0.0,53,0.00,,,0.00,WeatherCatV1.21B27,2013-08-20 17:31:00,
2013-08-20 18:36:00,70.1,51.6,30.29,NW,308,0.0,0.0,52,0.00,,,0.00,WeatherCatV1.21B27,2013-08-20 17:36:00,
2013-08-20 18:41:00,69.9,52.0,30.29,NW,308,0.0,0.0,53,0.00,,,0.00,WeatherCatV1.21B27,2013-08-20 17:41:00,
2013-08-20 18:46:00,69.8,51.9,30.29,NW,308,0.0,0.0,53,0.00,,,0.00,WeatherCatV1.21B27,2013-08-20 17:46:00,
2013-08-20 18:51:00,69.6,51.7,30.29,NW,308,0.0,0.0,53,0.00,,,0.00,WeatherCatV1.21B27,2013-08-20 17:51:00,
2013-08-20 18:56:00,69.5,51.6,30.29,NW,307,0.0,0.0,53,0.00,,,0.00,WeatherCatV1.21B27,2013-08-20 17:56:00,
2013-08-20 19:01:00,69.3,51.9,30.29,NW,307,0.0,0.0,54,0.00,,,0.00,WeatherCatV1.21B27,2013-08-20 18:01:00,
2013-08-20 19:06:00,69.2,52.8,30.29,NW,307,0.0,0.0,56,0.00,,,0.00,WeatherCatV1.21B27,2013-08-20 18:06:00,
2013-08-20 19:11:00,68.9,53.0,30.29,NW,308,0.0,0.0,57,0.00,,,0.00,WeatherCatV1.21B27,2013-08-20 18:11:00,
2013-08-20 19:16:00,68.7,52.8,30.29,NW,308,0.0,0.0,57,0.00,,,0.00,WeatherCatV1.21B27,2013-08-20 18:16:00,
2013-08-20 19:21:00,68.3,52.9,30.29,NW,307,0.0,0.0,58,0.00,,,0.00,WeatherCatV1.21B27,2013-08-20 18:21:00,
2013-08-20 19:26:00,68.1,52.8,30.29,NW,308,0.0,0.0,58,0.00,,,0.00,WeatherCatV1.21B27,2013-08-20 18:26:00,
2013-08-20 19:31:00,67.7,53.3,30.29,NW,308,0.0,0.0,60,0.00,,,0.00,WeatherCatV1.21B27,2013-08-20 18:31:00,
2013-08-20 19:36:00,67.3,53.4,30.29,NW,308,0.0,0.0,61,0.00,,,0.00,WeatherCatV1.21B27,2013-08-20 18:36:00,
2013-08-20 19:41:00,67.0,53.5,30.29,NW,308,0.0,0.0,62,0.00,,,0.00,WeatherCatV1.21B27,2013-08-20 18:41:00,
2013-08-20 19:46:00,66.6,53.6,30.29,NW,309,0.0,0.0,63,0.00,,,0.00,WeatherCatV1.21B27,2013-08-20 18:46:00,
2013-08-20 19:51:00,66.3,53.8,30.29,NW,308,0.0,0.0,64,0.00,,,0.00,WeatherCatV1.21B27,2013-08-20 18:51:00,
2013-08-20 19:56:00,66.1,54.0,30.29,NW,308,0.0,0.0,65,0.00,,,0.00,WeatherCatV1.21B27,2013-08-20 18:56:00,
2013-08-20 20:01:00,65.8,53.7,30.29,NW,307,0.0,0.0,65,0.00,,,0.00,WeatherCatV1.21B27,2013-08-20 19:01:00,
2013-08-20 20:06:00,65.6,53.5,30.29,NW,307,0.0,0.0,65,0.00,,,0.00,WeatherCatV1.21B27,2013-08-20 19:06:00,
2013-08-20 20:11:00,65.5,53.8,30.29,NW,309,0.0,0.0,66,0.00,,,0.00,WeatherCatV1.21B27,2013-08-20 19:11:00,
2013-08-20 20:16:00,65.4,54.2,30.30,NW,309,0.0,0.0,67,0.00,,,0.00,WeatherCatV1.21B27,2013-08-20 19:16:00,
2013-08-20 20:21:00,65.3,54.5,30.30,NNE,27,0.0,1.0,68,0.00,,,0.00,WeatherCatV1.21B27,2013-08-20 19:21:00,
2013-08-20 20:26:00,65.2,54.4,30.30,NNE,27,0.0,1.0,68,0.00,,,0.00,WeatherCatV1.21B27,2013-08-20 19:26:00,
2013-08-20 20:31:00,65.0,54.6,30.30,NNE,27,0.0,0.0,69,0.00,,,0.00,WeatherCatV1.21B27,2013-08-20 19:31:00,
2013-08-20 20:36:00,64.8,54.8,30.30,WSW,245,0.0,1.0,70,0.00,,,0.00,WeatherCatV1.21B27,2013-08-20 19:36:00,
2013-08-20 20:41:00,64.5,54.9,30.30,WSW,245,0.0,1.0,71,0.00,,,0.00,WeatherCatV1.21B27,2013-08-20 19:41:00,
2013-08-20 20:46:00,64.1,54.5,30.30,WSW,245,0.0,0.0,71,0.00,,,0.00,WeatherCatV1.21B27,2013-08-20 19:46:00,
2013-08-20 20:51:00,63.8,54.6,30.30,WSW,245,0.0,0.0,72,0.00,,,0.00,WeatherCatV1.21B27,2013-08-20 19:51:00,
2013-08-20 20:56:00,63.5,54.3,30.30,WSW,245,0.0,0.0,72,0.00,,,0.00,WeatherCatV1.21B27,2013-08-20 19:56:00,
2013-08-20 21:01:00,63.3,54.5,30.30,WSW,245,0.0,0.0,73,0.00,,,0.00,WeatherCatV1.21B27,2013-08-20 20:01:00,
2013-08-20 21:06:00,62.9,54.1,30.30,WSW,245,0.0,0.0,73,0.00,,,0.00,WeatherCatV1.21B27,2013-08-20 20:06:00,
2013-08-20 21:11:00,62.6,54.2,30.30,WSW,245,0.0,0.0,74,0.00,,,0.00,WeatherCatV1.21B27,2013-08-20 20:11:00,
2013-08-20 21:16:00,62.3,54.3,30.30,WSW,245,0.0,0.0,75,0.00,,,0.00,WeatherCatV1.21B27,2013-08-20 20:16:00,
2013-08-20 21:21:00,62.0,54.0,30.30,WSW,245,0.0,0.0,75,0.00,,,0.00,WeatherCatV1.21B27,2013-08-20 20:21:00,
2013-08-20 21:26:00,61.9,54.2,30.31,WSW,245,0.0,0.0,76,0.00,,,0.00,WeatherCatV1.21B27,2013-08-20 20:26:00,
2013-08-20 21:31:00,61.7,54.0,30.30,WSW,245,0.0,0.0,76,0.00,,,0.00,WeatherCatV1.21B27,2013-08-20 20:31:00,
2013-08-20 21:36:00,61.4,54.1,30.31,WSW,245,0.0,0.0,77,0.00,,,0.00,WeatherCatV1.21B27,2013-08-20 20:36:00,
2013-08-20 21:41:00,61.2,53.9,30.31,WSW,245,0.0,1.0,77,0.00,,,0.00,WeatherCatV1.21B27,2013-08-20 20:41:00,
2013-08-20 21:46:00,61.0,54.1,30.31,WSW,245,0.0,0.0,78,0.00,,,0.00,WeatherCatV1.21B27,2013-08-20 20:46:00,
2013-08-20 21:51:00,60.8,53.9,30.31,WSW,245,0.0,0.0,78,0.00,,,0.00,WeatherCatV1.21B27,2013-08-20 20:51:00,
2013-08-20 21:56:00,60.6,54.0,30.31,WSW,245,0.0,0.0,79,0.00,,,0.00,WeatherCatV1.21B27,2013-08-20 20:56:00,
2013-08-20 22:01:00,60.5,54.0,30.31,WSW,245,0.0,0.0,79,0.00,,,0.00,WeatherCatV1.21B27,2013-08-20 21:01:00,
2013-08-20 22:06:00,60.3,53.8,30.31,WSW,245,0.0,0.0,79,0.00,,,0.00,WeatherCatV1.21B27,2013-08-20 21:06:00,
2013-08-20 22:11:00,60.1,53.9,30.31,WSW,245,0.0,0.0,80,0.00,,,0.00,WeatherCatV1.21B27,2013-08-20 21:11:00,
2013-08-20 22:16:00,60.0,53.8,30.31,WSW,245,0.0,0.0,80,0.00,,,0.00,WeatherCatV1.21B27,2013-08-20 21:16:00,
2013-08-20 22:21:00,59.9,53.7,30.31,WSW,245,0.0,0.0,80,0.00,,,0.00,WeatherCatV1.21B27,2013-08-20 21:21:00,
2013-08-20 22:26:00,59.9,53.7,30.31,WSW,245,0.0,0.0,80,0.00,,,0.00,WeatherCatV1.21B27,2013-08-20 21:26:00,
2013-08-20 22:31:00,59.7,53.5,30.31,WSW,245,0.0,0.0,80,0.00,,,0.00,WeatherCatV1.21B27,2013-08-20 21:31:00,
2013-08-20 22:36:00,59.5,53.7,30.31,WSW,245,0.0,0.0,81,0.00,,,0.00,WeatherCatV1.21B27,2013-08-20 21:36:00,
2013-08-20 22:41:00,59.3,53.5,30.31,WSW,245,0.0,0.0,81,0.00,,,0.00,WeatherCatV1.21B27,2013-08-20 21:41:00,
2013-08-20 22:46:00,59.1,53.3,30.31,WSW,245,0.0,0.0,81,0.00,,,0.00,WeatherCatV1.21B27,2013-08-20 21:46:00,
2013-08-20 22:51:00,58.8,53.3,30.31,WSW,245,0.0,0.0,82,0.00,,,0.00,WeatherCatV1.21B27,2013-08-20 21:51:00,
2013-08-20 22:56:00,58.6,53.1,30.31,WSW,245,0.0,0.0,82,0.00,,,0.00,WeatherCatV1.21B27,2013-08-20 21:56:00,
2013-08-20 23:01:00,58.4,53.2,30.31,WSW,245,0.0,0.0,83,0.00,,,0.00,WeatherCatV1.21B27,2013-08-20 22:01:00,
2013-08-20 23:06:00,58.1,53.0,30.31,WSW,245,0.0,0.0,83,0.00,,,0.00,WeatherCatV1.21B27,2013-08-20 22:06:00,
2013-08-20 23:11:00,57.9,52.8,30.31,WSW,245,0.0,0.0,83,0.00,,,0.00,WeatherCatV1.21B27,2013-08-20 22:11:00,
2013-08-20 23:16:00,57.7,52.6,30.31,WSW,245,0.0,0.0,83,0.00,,,0.00,WeatherCatV1.21B27,2013-08-20 22:16:00,
2013-08-20 23:21:00,57.4,52.6,30.31,WSW,245,0.0,0.0,84,0.00,,,0.00,WeatherCatV1.21B27,2013-08-20 22:21:00,
2013-08-20 23:26:00,57.1,52.3,30.31,WSW,245,0.0,0.0,84,0.00,,,0.00,WeatherCatV1.21B27,2013-08-20 22:26:00,
2013-08-20 23:31:00,56.9,52.4,30.31,WSW,245,0.0,0.0,85,0.00,,,0.00,WeatherCatV1.21B27,2013-08-20 22:31:00,
2013-08-20 23:36:00,56.8,52.3,30.31,WSW,245,0.0,0.0,85,0.00,,,0.00,WeatherCatV1.21B27,2013-08-20 22:36:00,
2013-08-20 23:41:00,56.7,52.2,30.31,WSW,245,0.0,0.0,85,0.00,,,0.00,WeatherCatV1.21B27,2013-08-20 22:41:00,
2013-08-20 23:46:00,56.5,52.0,30.30,WSW,245,0.0,0.0,85,0.00,,,0.00,WeatherCatV1.21B27,2013-08-20 22:46:00,
2013-08-20 23:51:00,56.2,51.8,30.31,WSW,245,0.0,0.0,85,0.00,,,0.00,WeatherCatV1.21B27,2013-08-20 22:51:00,
2013-08-20 23:56:00,56.0,52.2,30.31,WSW,245,0.0,0.0,87,0.00,,,0.00,WeatherCatV1.21B27,2013-08-20 22:56:00,